Year,Month,Day,Hour,Minute,Value (Times are PST for barometer in hPa)
2010,03,30,00,00,989.98
2010,03,30,00,01,989.98
2010,03,30,00,02,989.94
2010,03,30,00,03,989.91
2010,03,30,00,04,989.84
2010,03,30,00,05,989.81
2010,03,30,00,06,989.74
2010,03,30,00,07,989.84
2010,03,30,00,08,989.93
2010,03,30,00,09,990.01
2010,03,30,00,10,990.01
2010,03,30,00,11,990.04
2010,03,30,00,12,990.08
2010,03,30,00,13,990.15
2010,03,30,00,14,990.18
2010,03,30,00,15,990.21
2010,03,30,00,16,990.21
2010,03,30,00,17,990.21
2010,03,30,00,18,990.18
2010,03,30,00,19,990.15
2010,03,30,00,20,990.15
2010,03,30,00,21,990.15
2010,03,30,00,22,990.21
2010,03,30,00,23,990.32
2010,03,30,00,24,990.35
2010,03,30,00,25,990.42
2010,03,30,00,26,990.49
2010,03,30,00,27,990.49
2010,03,30,00,28,990.45
2010,03,30,00,29,990.38
2010,03,30,00,30,990.38
2010,03,30,00,31,990.35
2010,03,30,00,32,990.35
2010,03,30,00,33,990.45
2010,03,30,00,34,990.38
2010,03,30,00,35,990.38
2010,03,30,00,36,990.35
2010,03,30,00,37,990.32
2010,03,30,00,38,990.32
2010,03,30,00,39,990.32
2010,03,30,00,40,990.25
2010,03,30,00,41,990.25
2010,03,30,00,42,990.28
2010,03,30,00,43,990.28
2010,03,30,00,44,990.21
2010,03,30,00,45,990.21
2010,03,30,00,46,990.18
2010,03,30,00,47,990.15
2010,03,30,00,48,990.15
2010,03,30,00,49,990.11
2010,03,30,00,50,990.15
2010,03,30,00,51,990.11
2010,03,30,00,52,990.15
2010,03,30,00,53,990.15
2010,03,30,00,54,990.15
2010,03,30,00,55,990.18
2010,03,30,00,56,990.11
2010,03,30,00,57,990.08
2010,03,30,00,58,990.11
2010,03,30,00,59,990.08
2010,03,30,01,00,990.08
2010,03,30,01,01,990.04
2010,03,30,01,02,990.04
2010,03,30,01,03,990.08
2010,03,30,01,04,990.08
2010,03,30,01,05,990.08
2010,03,30,01,06,990.04
2010,03,30,01,07,990.11
2010,03,30,01,08,990.08
2010,03,30,01,09,990.15
2010,03,30,01,10,990.15
2010,03,30,01,11,990.18
2010,03,30,01,12,990.15
2010,03,30,01,13,990.11
2010,03,30,01,14,990.18
2010,03,30,01,15,990.18
2010,03,30,01,16,990.21
2010,03,30,01,17,990.21
2010,03,30,01,18,990.21
2010,03,30,01,19,990.18
2010,03,30,01,20,990.18
2010,03,30,01,21,990.21
2010,03,30,01,22,990.21
2010,03,30,01,23,990.21
2010,03,30,01,24,990.18
2010,03,30,01,25,990.18
2010,03,30,01,26,990.21
2010,03,30,01,27,990.21
2010,03,30,01,28,990.25
2010,03,30,01,29,990.21
2010,03,30,01,30,990.25
2010,03,30,01,31,990.25
2010,03,30,01,32,990.25
2010,03,30,01,33,990.28
2010,03,30,01,34,990.28
2010,03,30,01,35,990.28
2010,03,30,01,36,990.32
2010,03,30,01,37,990.35
2010,03,30,01,38,990.35
2010,03,30,01,39,990.35
2010,03,30,01,40,990.35
2010,03,30,01,41,990.35
2010,03,30,01,42,990.38
2010,03,30,01,43,990.38
2010,03,30,01,44,990.38
2010,03,30,01,45,990.42
2010,03,30,01,46,990.42
2010,03,30,01,47,990.52
2010,03,30,01,48,990.49
2010,03,30,01,49,990.52
2010,03,30,01,50,990.55
2010,03,30,01,51,990.52
2010,03,30,01,52,990.52
2010,03,30,01,53,990.52
2010,03,30,01,54,990.59
2010,03,30,01,55,990.62
2010,03,30,01,56,990.62
2010,03,30,01,57,990.59
2010,03,30,01,58,990.62
2010,03,30,01,59,990.62
2010,03,30,02,00,990.62
2010,03,30,02,01,990.62
2010,03,30,02,02,990.65
2010,03,30,02,03,990.72
2010,03,30,02,04,990.69
2010,03,30,02,05,990.69
2010,03,30,02,06,990.65
2010,03,30,02,07,990.69
2010,03,30,02,08,990.69
2010,03,30,02,09,990.72
2010,03,30,02,10,990.69
2010,03,30,02,11,990.72
2010,03,30,02,12,990.69
2010,03,30,02,13,990.69
2010,03,30,02,14,990.69
2010,03,30,02,15,990.72
2010,03,30,02,16,990.72
2010,03,30,02,17,990.76
2010,03,30,02,18,990.72
2010,03,30,02,19,990.76
2010,03,30,02,20,990.79
2010,03,30,02,21,990.76
2010,03,30,02,22,990.76
2010,03,30,02,23,990.72
2010,03,30,02,24,990.82
2010,03,30,02,25,990.82
2010,03,30,02,26,990.86
2010,03,30,02,27,990.86
2010,03,30,02,28,990.82
2010,03,30,02,29,990.86
2010,03,30,02,30,990.86
2010,03,30,02,31,990.86
2010,03,30,02,32,990.82
2010,03,30,02,33,990.82
2010,03,30,02,34,990.82
2010,03,30,02,35,990.82
2010,03,30,02,36,990.86
2010,03,30,02,37,990.86
2010,03,30,02,38,990.86
2010,03,30,02,39,990.89
2010,03,30,02,40,990.93
2010,03,30,02,41,990.93
2010,03,30,02,42,990.96
2010,03,30,02,43,990.96
2010,03,30,02,44,990.96
2010,03,30,02,45,990.96
2010,03,30,02,46,990.96
2010,03,30,02,47,990.96
2010,03,30,02,48,990.96
2010,03,30,02,49,990.96
2010,03,30,02,50,990.93
2010,03,30,02,51,990.93
2010,03,30,02,52,990.93
2010,03,30,02,53,990.96
2010,03,30,02,54,990.99
2010,03,30,02,55,991.03
2010,03,30,02,56,990.96
2010,03,30,02,57,990.93
2010,03,30,02,58,990.96
2010,03,30,02,59,990.96
2010,03,30,03,00,990.93
2010,03,30,03,01,990.99
2010,03,30,03,02,990.99
2010,03,30,03,03,990.93
2010,03,30,03,04,990.99
2010,03,30,03,05,990.96
2010,03,30,03,06,990.99
2010,03,30,03,07,990.99
2010,03,30,03,08,991.06
2010,03,30,03,09,991.06
2010,03,30,03,10,991.03
2010,03,30,03,11,991.03
2010,03,30,03,12,991.03
2010,03,30,03,13,991.03
2010,03,30,03,14,991.03
2010,03,30,03,15,991.03
2010,03,30,03,16,990.96
2010,03,30,03,17,990.99
2010,03,30,03,18,990.99
2010,03,30,03,19,990.99
2010,03,30,03,20,990.99
2010,03,30,03,21,990.96
2010,03,30,03,22,990.96
2010,03,30,03,23,990.99
2010,03,30,03,24,990.99
2010,03,30,03,25,990.99
2010,03,30,03,26,990.99
2010,03,30,03,27,990.96
2010,03,30,03,28,990.99
2010,03,30,03,29,990.96
2010,03,30,03,30,990.99
2010,03,30,03,31,991.03
2010,03,30,03,32,990.99
2010,03,30,03,33,990.99
2010,03,30,03,34,990.99
2010,03,30,03,35,990.99
2010,03,30,03,36,990.96
2010,03,30,03,37,990.93
2010,03,30,03,38,990.93
2010,03,30,03,39,990.93
2010,03,30,03,40,990.93
2010,03,30,03,41,990.96
2010,03,30,03,42,990.96
2010,03,30,03,43,990.99
2010,03,30,03,44,990.99
2010,03,30,03,45,990.99
2010,03,30,03,46,990.99
2010,03,30,03,47,991.03
2010,03,30,03,48,991.03
2010,03,30,03,49,991.03
2010,03,30,03,50,991.03
2010,03,30,03,51,990.99
2010,03,30,03,52,990.99
2010,03,30,03,53,990.99
2010,03,30,03,54,990.99
2010,03,30,03,55,991.06
2010,03,30,03,56,991.03
2010,03,30,03,57,991.03
2010,03,30,03,58,990.99
2010,03,30,03,59,990.99
2010,03,30,04,00,990.99
2010,03,30,04,01,991.03
2010,03,30,04,02,991.09
2010,03,30,04,03,991.13
2010,03,30,04,04,991.13
2010,03,30,04,05,991.16
2010,03,30,04,06,991.20
2010,03,30,04,07,991.21
2010,03,30,04,08,991.26
2010,03,30,04,09,991.27
2010,03,30,04,10,991.33
2010,03,30,04,11,991.38
2010,03,30,04,12,991.43
2010,03,30,04,13,991.43
2010,03,30,04,14,991.43
2010,03,30,04,15,991.42
2010,03,30,04,16,991.33
2010,03,30,04,17,991.33
2010,03,30,04,18,991.33
2010,03,30,04,19,991.30
2010,03,30,04,20,991.26
2010,03,30,04,21,991.23
2010,03,30,04,22,991.20
2010,03,30,04,23,991.23
2010,03,30,04,24,991.20
2010,03,30,04,25,991.17
2010,03,30,04,26,991.23
2010,03,30,04,27,991.23
2010,03,30,04,28,991.20
2010,03,30,04,29,991.20
2010,03,30,04,30,991.23
2010,03,30,04,31,991.23
2010,03,30,04,32,991.20
2010,03,30,04,33,991.20
2010,03,30,04,34,991.16
2010,03,30,04,35,991.20
2010,03,30,04,36,991.20
2010,03,30,04,37,991.23
2010,03,30,04,38,991.26
2010,03,30,04,39,991.33
2010,03,30,04,40,991.33
2010,03,30,04,41,991.37
2010,03,30,04,42,991.37
2010,03,30,04,43,991.33
2010,03,30,04,44,991.34
2010,03,30,04,45,991.43
2010,03,30,04,46,991.43
2010,03,30,04,47,991.47
2010,03,30,04,48,991.50
2010,03,30,04,49,991.53
2010,03,30,04,50,991.57
2010,03,30,04,51,991.58
2010,03,30,04,52,991.64
2010,03,30,04,53,991.60
2010,03,30,04,54,991.64
2010,03,30,04,55,991.67
2010,03,30,04,56,991.70
2010,03,30,04,57,991.74
2010,03,30,04,58,991.81
2010,03,30,04,59,991.81
2010,03,30,05,00,991.81
2010,03,30,05,01,991.81
2010,03,30,05,02,991.77
2010,03,30,05,03,991.77
2010,03,30,05,04,991.77
2010,03,30,05,05,991.77
2010,03,30,05,06,991.77
2010,03,30,05,07,991.77
2010,03,30,05,08,991.77
2010,03,30,05,09,991.81
2010,03,30,05,10,991.81
2010,03,30,05,11,991.84
2010,03,30,05,12,991.84
2010,03,30,05,13,991.87
2010,03,30,05,14,991.91
2010,03,30,05,15,991.98
2010,03,30,05,16,991.98
2010,03,30,05,17,991.98
2010,03,30,05,18,991.98
2010,03,30,05,19,991.98
2010,03,30,05,20,991.98
2010,03,30,05,21,991.98
2010,03,30,05,22,991.98
2010,03,30,05,23,991.98
2010,03,30,05,24,991.94
2010,03,30,05,25,991.94
2010,03,30,05,26,991.91
2010,03,30,05,27,991.91
2010,03,30,05,28,991.87
2010,03,30,05,29,991.87
2010,03,30,05,30,991.94
2010,03,30,05,31,991.87
2010,03,30,05,32,991.87
2010,03,30,05,33,991.84
2010,03,30,05,34,991.84
2010,03,30,05,35,991.87
2010,03,30,05,36,991.87
2010,03,30,05,37,991.87
2010,03,30,05,38,991.87
2010,03,30,05,39,991.87
2010,03,30,05,40,991.87
2010,03,30,05,41,991.87
2010,03,30,05,42,991.84
2010,03,30,05,43,991.87
2010,03,30,05,44,991.84
2010,03,30,05,45,991.84
2010,03,30,05,46,991.84
2010,03,30,05,47,991.84
2010,03,30,05,48,991.91
2010,03,30,05,49,991.91
2010,03,30,05,50,991.94
2010,03,30,05,51,991.94
2010,03,30,05,52,991.94
2010,03,30,05,53,991.98
2010,03,30,05,54,991.98
2010,03,30,05,55,992.04
2010,03,30,05,56,992.01
2010,03,30,05,57,992.01
2010,03,30,05,58,992.08
2010,03,30,05,59,992.04
2010,03,30,06,00,992.08
2010,03,30,06,01,992.11
2010,03,30,06,02,992.11
2010,03,30,06,03,992.11
2010,03,30,06,04,992.11
2010,03,30,06,05,992.11
2010,03,30,06,06,992.14
2010,03,30,06,07,992.14
2010,03,30,06,08,992.11
2010,03,30,06,09,992.11
2010,03,30,06,10,992.11
2010,03,30,06,11,992.14
2010,03,30,06,12,992.11
2010,03,30,06,13,992.14
2010,03,30,06,14,992.14
2010,03,30,06,15,992.14
2010,03,30,06,16,992.14
2010,03,30,06,17,992.14
2010,03,30,06,18,992.14
2010,03,30,06,19,992.18
2010,03,30,06,20,992.21
2010,03,30,06,21,992.21
2010,03,30,06,22,992.18
2010,03,30,06,23,992.18
2010,03,30,06,24,992.18
2010,03,30,06,25,992.18
2010,03,30,06,26,992.18
2010,03,30,06,27,992.18
2010,03,30,06,28,992.14
2010,03,30,06,29,992.18
2010,03,30,06,30,992.18
2010,03,30,06,31,992.25
2010,03,30,06,32,992.25
2010,03,30,06,33,992.28
2010,03,30,06,34,992.28
2010,03,30,06,35,992.28
2010,03,30,06,36,992.31
2010,03,30,06,37,992.31
2010,03,30,06,38,992.31
2010,03,30,06,39,992.28
2010,03,30,06,40,992.25
2010,03,30,06,41,992.21
2010,03,30,06,42,992.21
2010,03,30,06,43,992.21
2010,03,30,06,44,992.28
2010,03,30,06,45,992.28
2010,03,30,06,46,992.28
2010,03,30,06,47,992.31
2010,03,30,06,48,992.31
2010,03,30,06,49,992.31
2010,03,30,06,50,992.31
2010,03,30,06,51,992.35
2010,03,30,06,52,992.35
2010,03,30,06,53,992.35
2010,03,30,06,54,992.38
2010,03,30,06,55,992.38
2010,03,30,06,56,992.45
2010,03,30,06,57,992.48
2010,03,30,06,58,992.48
2010,03,30,06,59,992.48
2010,03,30,07,00,992.52
2010,03,30,07,01,992.52
2010,03,30,07,02,992.52
2010,03,30,07,03,992.48
2010,03,30,07,04,992.48
2010,03,30,07,05,992.48
2010,03,30,07,06,992.48
2010,03,30,07,07,992.45
2010,03,30,07,08,992.48
2010,03,30,07,09,992.48
2010,03,30,07,10,992.52
2010,03,30,07,11,992.55
2010,03,30,07,12,992.55
2010,03,30,07,13,992.62
2010,03,30,07,14,992.65
2010,03,30,07,15,992.65
2010,03,30,07,16,992.69
2010,03,30,07,17,992.75
2010,03,30,07,18,992.75
2010,03,30,07,19,992.79
2010,03,30,07,20,992.75
2010,03,30,07,21,992.79
2010,03,30,07,22,992.79
2010,03,30,07,23,992.75
2010,03,30,07,24,992.79
2010,03,30,07,25,992.82
2010,03,30,07,26,992.82
2010,03,30,07,27,992.79
2010,03,30,07,28,992.82
2010,03,30,07,29,992.82
2010,03,30,07,30,992.82
2010,03,30,07,31,992.82
2010,03,30,07,32,992.79
2010,03,30,07,33,992.79
2010,03,30,07,34,992.82
2010,03,30,07,35,992.75
2010,03,30,07,36,992.79
2010,03,30,07,37,992.79
2010,03,30,07,38,992.79
2010,03,30,07,39,992.79
2010,03,30,07,40,992.75
2010,03,30,07,41,992.72
2010,03,30,07,42,992.75
2010,03,30,07,43,992.75
2010,03,30,07,44,992.79
2010,03,30,07,45,992.75
2010,03,30,07,46,992.75
2010,03,30,07,47,992.72
2010,03,30,07,48,992.75
2010,03,30,07,49,992.75
2010,03,30,07,50,992.75
2010,03,30,07,51,992.75
2010,03,30,07,52,992.75
2010,03,30,07,53,992.79
2010,03,30,07,54,992.75
2010,03,30,07,55,992.75
2010,03,30,07,56,992.75
2010,03,30,07,57,992.75
2010,03,30,07,58,992.79
2010,03,30,07,59,992.75
2010,03,30,08,00,992.79
2010,03,30,08,01,992.82
2010,03,30,08,02,992.86
2010,03,30,08,03,992.86
2010,03,30,08,04,992.89
2010,03,30,08,05,992.86
2010,03,30,08,06,992.89
2010,03,30,08,07,992.92
2010,03,30,08,08,992.89
2010,03,30,08,09,992.92
2010,03,30,08,10,992.89
2010,03,30,08,11,992.96
2010,03,30,08,12,992.92
2010,03,30,08,13,992.89
2010,03,30,08,14,992.89
2010,03,30,08,15,992.92
2010,03,30,08,16,992.89
2010,03,30,08,17,992.89
2010,03,30,08,18,992.96
2010,03,30,08,19,992.92
2010,03,30,08,20,992.92
2010,03,30,08,21,992.96
2010,03,30,08,22,992.96
2010,03,30,08,23,992.92
2010,03,30,08,24,992.96
2010,03,30,08,25,992.89
2010,03,30,08,26,992.96
2010,03,30,08,27,992.89
2010,03,30,08,28,992.96
2010,03,30,08,29,992.99
2010,03,30,08,30,992.99
2010,03,30,08,31,992.99
2010,03,30,08,32,992.99
2010,03,30,08,33,993.06
2010,03,30,08,34,993.06
2010,03,30,08,35,993.13
2010,03,30,08,36,993.09
2010,03,30,08,37,993.13
2010,03,30,08,38,993.19
2010,03,30,08,39,993.19
2010,03,30,08,40,993.23
2010,03,30,08,41,993.23
2010,03,30,08,42,993.26
2010,03,30,08,43,993.26
2010,03,30,08,44,993.30
2010,03,30,08,45,993.30
2010,03,30,08,46,993.30
2010,03,30,08,47,993.30
2010,03,30,08,48,993.30
2010,03,30,08,49,993.30
2010,03,30,08,50,993.33
2010,03,30,08,51,993.30
2010,03,30,08,52,993.33
2010,03,30,08,53,993.33
2010,03,30,08,54,993.33
2010,03,30,08,55,993.33
2010,03,30,08,56,993.36
2010,03,30,08,57,993.36
2010,03,30,08,58,993.33
2010,03,30,08,59,993.36
2010,03,30,09,00,993.33
2010,03,30,09,01,993.33
2010,03,30,09,02,993.33
2010,03,30,09,03,993.36
2010,03,30,09,04,993.33
2010,03,30,09,05,993.36
2010,03,30,09,06,993.36
2010,03,30,09,07,993.40
2010,03,30,09,08,993.40
2010,03,30,09,09,993.40
2010,03,30,09,10,993.43
2010,03,30,09,11,993.43
2010,03,30,09,12,993.43
2010,03,30,09,13,993.47
2010,03,30,09,14,993.43
2010,03,30,09,15,993.47
2010,03,30,09,16,993.47
2010,03,30,09,17,993.43
2010,03,30,09,18,993.47
2010,03,30,09,19,993.50
2010,03,30,09,20,993.47
2010,03,30,09,21,993.53
2010,03,30,09,22,993.57
2010,03,30,09,23,993.57
2010,03,30,09,24,993.60
2010,03,30,09,25,993.63
2010,03,30,09,26,993.63
2010,03,30,09,27,993.63
2010,03,30,09,28,993.63
2010,03,30,09,29,993.67
2010,03,30,09,30,993.67
2010,03,30,09,31,993.70
2010,03,30,09,32,993.70
2010,03,30,09,33,993.70
2010,03,30,09,34,993.77
2010,03,30,09,35,993.74
2010,03,30,09,36,993.77
2010,03,30,09,37,993.77
2010,03,30,09,38,993.80
2010,03,30,09,39,993.74
2010,03,30,09,40,993.84
2010,03,30,09,41,993.77
2010,03,30,09,42,993.77
2010,03,30,09,43,993.74
2010,03,30,09,44,993.74
2010,03,30,09,45,993.74
2010,03,30,09,46,993.70
2010,03,30,09,47,993.70
2010,03,30,09,48,993.74
2010,03,30,09,49,993.74
2010,03,30,09,50,993.74
2010,03,30,09,51,993.74
2010,03,30,09,52,993.80
2010,03,30,09,53,993.80
2010,03,30,09,54,993.80
2010,03,30,09,55,993.80
2010,03,30,09,56,993.87
2010,03,30,09,57,993.84
2010,03,30,09,58,993.87
2010,03,30,09,59,993.91
2010,03,30,10,00,993.91
2010,03,30,10,01,993.91
2010,03,30,10,02,993.94
2010,03,30,10,03,993.91
2010,03,30,10,04,993.91
2010,03,30,10,05,993.91
2010,03,30,10,06,993.91
2010,03,30,10,07,993.91
2010,03,30,10,08,993.91
2010,03,30,10,09,993.91
2010,03,30,10,10,993.94
2010,03,30,10,11,993.97
2010,03,30,10,12,994.01
2010,03,30,10,13,994.01
2010,03,30,10,14,994.04
2010,03,30,10,15,994.04
2010,03,30,10,16,994.04
2010,03,30,10,17,994.07
2010,03,30,10,18,994.11
2010,03,30,10,19,994.11
2010,03,30,10,20,994.11
2010,03,30,10,21,994.18
2010,03,30,10,22,994.21
2010,03,30,10,23,994.21
2010,03,30,10,24,994.24
2010,03,30,10,25,994.24
2010,03,30,10,26,994.24
2010,03,30,10,27,994.28
2010,03,30,10,28,994.28
2010,03,30,10,29,994.28
2010,03,30,10,30,994.35
2010,03,30,10,31,994.35
2010,03,30,10,32,994.35
2010,03,30,10,33,994.35
2010,03,30,10,34,994.35
2010,03,30,10,35,994.38
2010,03,30,10,36,994.41
2010,03,30,10,37,994.41
2010,03,30,10,38,994.45
2010,03,30,10,39,994.41
2010,03,30,10,40,994.45
2010,03,30,10,41,994.48
2010,03,30,10,42,994.55
2010,03,30,10,43,994.62
2010,03,30,10,44,994.65
2010,03,30,10,45,994.65
2010,03,30,10,46,994.68
2010,03,30,10,47,994.72
2010,03,30,10,48,994.72
2010,03,30,10,49,994.79
2010,03,30,10,50,994.75
2010,03,30,10,51,994.79
2010,03,30,10,52,994.79
2010,03,30,10,53,994.82
2010,03,30,10,54,994.89
2010,03,30,10,55,994.82
2010,03,30,10,56,994.89
2010,03,30,10,57,994.89
2010,03,30,10,58,994.92
2010,03,30,10,59,994.92
2010,03,30,11,00,994.92
2010,03,30,11,01,994.96
2010,03,30,11,02,994.96
2010,03,30,11,03,994.92
2010,03,30,11,04,994.92
2010,03,30,11,05,994.92
2010,03,30,11,06,994.92
2010,03,30,11,07,994.96
2010,03,30,11,08,994.96
2010,03,30,11,09,994.96
2010,03,30,11,10,994.99
2010,03,30,11,11,994.99
2010,03,30,11,12,995.02
2010,03,30,11,13,995.06
2010,03,30,11,14,995.02
2010,03,30,11,15,995.02
2010,03,30,11,16,995.06
2010,03,30,11,17,995.09
2010,03,30,11,18,995.12
2010,03,30,11,19,995.12
2010,03,30,11,20,995.09
2010,03,30,11,21,995.09
2010,03,30,11,22,995.12
2010,03,30,11,23,995.12
2010,03,30,11,24,995.16
2010,03,30,11,25,995.19
2010,03,30,11,26,995.16
2010,03,30,11,27,995.23
2010,03,30,11,28,995.26
2010,03,30,11,29,995.26
2010,03,30,11,30,995.29
2010,03,30,11,31,995.29
2010,03,30,11,32,995.29
2010,03,30,11,33,995.36
2010,03,30,11,34,995.33
2010,03,30,11,35,995.36
2010,03,30,11,36,995.36
2010,03,30,11,37,995.40
2010,03,30,11,38,995.36
2010,03,30,11,39,995.36
2010,03,30,11,40,995.40
2010,03,30,11,41,995.40
2010,03,30,11,42,995.43
2010,03,30,11,43,995.43
2010,03,30,11,44,995.43
2010,03,30,11,45,995.46
2010,03,30,11,46,995.43
2010,03,30,11,47,995.46
2010,03,30,11,48,995.46
2010,03,30,11,49,995.46
2010,03,30,11,50,995.50
2010,03,30,11,51,995.46
2010,03,30,11,52,995.53
2010,03,30,11,53,995.50
2010,03,30,11,54,995.50
2010,03,30,11,55,995.53
2010,03,30,11,56,995.53
2010,03,30,11,57,995.50
2010,03,30,11,58,995.53
2010,03,30,11,59,995.53
2010,03,30,12,00,995.53
2010,03,30,12,01,995.50
2010,03,30,12,02,995.50
2010,03,30,12,03,995.50
2010,03,30,12,04,995.50
2010,03,30,12,05,995.53
2010,03,30,12,06,995.56
2010,03,30,12,07,995.56
2010,03,30,12,08,995.56
2010,03,30,12,09,995.56
2010,03,30,12,10,995.60
2010,03,30,12,11,995.63
2010,03,30,12,12,995.60
2010,03,30,12,13,995.67
2010,03,30,12,14,995.63
2010,03,30,12,15,995.67
2010,03,30,12,16,995.70
2010,03,30,12,17,995.70
2010,03,30,12,18,995.73
2010,03,30,12,19,995.67
2010,03,30,12,20,995.70
2010,03,30,12,21,995.70
2010,03,30,12,22,995.67
2010,03,30,12,23,995.63
2010,03,30,12,24,995.63
2010,03,30,12,25,995.60
2010,03,30,12,26,995.60
2010,03,30,12,27,995.63
2010,03,30,12,28,995.63
2010,03,30,12,29,995.63
2010,03,30,12,30,995.67
2010,03,30,12,31,995.67
2010,03,30,12,32,995.73
2010,03,30,12,33,995.73
2010,03,30,12,34,995.73
2010,03,30,12,35,995.77
2010,03,30,12,36,995.77
2010,03,30,12,37,995.80
2010,03,30,12,38,995.80
2010,03,30,12,39,995.80
2010,03,30,12,40,995.80
2010,03,30,12,41,995.80
2010,03,30,12,42,995.80
2010,03,30,12,43,995.80
2010,03,30,12,44,995.84
2010,03,30,12,45,995.80
2010,03,30,12,46,995.77
2010,03,30,12,47,995.84
2010,03,30,12,48,995.80
2010,03,30,12,49,995.80
2010,03,30,12,50,995.84
2010,03,30,12,51,995.80
2010,03,30,12,52,995.80
2010,03,30,12,53,995.84
2010,03,30,12,54,995.84
2010,03,30,12,55,995.77
2010,03,30,12,56,995.80
2010,03,30,12,57,995.77
2010,03,30,12,58,995.77
2010,03,30,12,59,995.80
2010,03,30,13,00,995.80
2010,03,30,13,01,995.80
2010,03,30,13,02,995.84
2010,03,30,13,03,995.84
2010,03,30,13,04,995.87
2010,03,30,13,05,995.87
2010,03,30,13,06,995.87
2010,03,30,13,07,995.87
2010,03,30,13,08,995.90
2010,03,30,13,09,995.94
2010,03,30,13,10,995.94
2010,03,30,13,11,995.90
2010,03,30,13,12,995.90
2010,03,30,13,13,995.94
2010,03,30,13,14,995.94
2010,03,30,13,15,995.90
2010,03,30,13,16,995.90
2010,03,30,13,17,995.97
2010,03,30,13,18,995.97
2010,03,30,13,19,995.94
2010,03,30,13,20,995.94
2010,03,30,13,21,995.97
2010,03,30,13,22,996.01
2010,03,30,13,23,995.97
2010,03,30,13,24,995.94
2010,03,30,13,25,995.94
2010,03,30,13,26,995.97
2010,03,30,13,27,995.97
2010,03,30,13,28,996.01
2010,03,30,13,29,995.97
2010,03,30,13,30,995.97
2010,03,30,13,31,996.01
2010,03,30,13,32,996.01
2010,03,30,13,33,996.01
2010,03,30,13,34,996.04
2010,03,30,13,35,996.04
2010,03,30,13,36,996.04
2010,03,30,13,37,996.04
2010,03,30,13,38,996.01
2010,03,30,13,39,996.04
2010,03,30,13,40,996.01
2010,03,30,13,41,996.07
2010,03,30,13,42,996.07
2010,03,30,13,43,996.07
2010,03,30,13,44,996.07
2010,03,30,13,45,996.07
2010,03,30,13,46,996.07
2010,03,30,13,47,996.11
2010,03,30,13,48,996.11
2010,03,30,13,49,996.11
2010,03,30,13,50,996.07
2010,03,30,13,51,996.11
2010,03,30,13,52,996.11
2010,03,30,13,53,996.11
2010,03,30,13,54,996.14
2010,03,30,13,55,996.14
2010,03,30,13,56,996.17
2010,03,30,13,57,996.21
2010,03,30,13,58,996.14
2010,03,30,13,59,996.17
2010,03,30,14,00,996.17
2010,03,30,14,01,996.17
2010,03,30,14,02,996.17
2010,03,30,14,03,996.21
2010,03,30,14,04,996.24
2010,03,30,14,05,996.24
2010,03,30,14,06,996.21
2010,03,30,14,07,996.21
2010,03,30,14,08,996.21
2010,03,30,14,09,996.24
2010,03,30,14,10,996.21
2010,03,30,14,11,996.21
2010,03,30,14,12,996.21
2010,03,30,14,13,996.21
2010,03,30,14,14,996.21
2010,03,30,14,15,996.17
2010,03,30,14,16,996.21
2010,03,30,14,17,996.21
2010,03,30,14,18,996.17
2010,03,30,14,19,996.17
2010,03,30,14,20,996.17
2010,03,30,14,21,996.17
2010,03,30,14,22,996.14
2010,03,30,14,23,996.17
2010,03,30,14,24,996.17
2010,03,30,14,25,996.17
2010,03,30,14,26,996.17
2010,03,30,14,27,996.17
2010,03,30,14,28,996.17
2010,03,30,14,29,996.21
2010,03,30,14,30,996.21
2010,03,30,14,31,996.24
2010,03,30,14,32,996.24
2010,03,30,14,33,996.21
2010,03,30,14,34,996.28
2010,03,30,14,35,996.28
2010,03,30,14,36,996.31
2010,03,30,14,37,996.31
2010,03,30,14,38,996.31
2010,03,30,14,39,996.31
2010,03,30,14,40,996.31
2010,03,30,14,41,996.34
2010,03,30,14,42,996.38
2010,03,30,14,43,996.34
2010,03,30,14,44,996.31
2010,03,30,14,45,996.38
2010,03,30,14,46,996.34
2010,03,30,14,47,996.34
2010,03,30,14,48,996.31
2010,03,30,14,49,996.38
2010,03,30,14,50,996.38
2010,03,30,14,51,996.38
2010,03,30,14,52,996.38
2010,03,30,14,53,996.41
2010,03,30,14,54,996.45
2010,03,30,14,55,996.48
2010,03,30,14,56,996.41
2010,03,30,14,57,996.48
2010,03,30,14,58,996.48
2010,03,30,14,59,996.45
2010,03,30,15,00,996.45
2010,03,30,15,01,996.48
2010,03,30,15,02,996.48
2010,03,30,15,03,996.48
2010,03,30,15,04,996.48
2010,03,30,15,05,996.51
2010,03,30,15,06,996.51
2010,03,30,15,07,996.51
2010,03,30,15,08,996.55
2010,03,30,15,09,996.58
2010,03,30,15,10,996.58
2010,03,30,15,11,996.61
2010,03,30,15,12,996.65
2010,03,30,15,13,996.65
2010,03,30,15,14,996.65
2010,03,30,15,15,996.68
2010,03,30,15,16,996.68
2010,03,30,15,17,996.72
2010,03,30,15,18,996.68
2010,03,30,15,19,996.68
2010,03,30,15,20,996.72
2010,03,30,15,21,996.68
2010,03,30,15,22,996.72
2010,03,30,15,23,996.68
2010,03,30,15,24,996.72
2010,03,30,15,25,996.72
2010,03,30,15,26,996.75
2010,03,30,15,27,996.75
2010,03,30,15,28,996.82
2010,03,30,15,29,996.82
2010,03,30,15,30,996.85
2010,03,30,15,31,996.89
2010,03,30,15,32,996.92
2010,03,30,15,33,996.92
2010,03,30,15,34,996.99
2010,03,30,15,35,996.99
2010,03,30,15,36,996.99
2010,03,30,15,37,997.05
2010,03,30,15,38,997.09
2010,03,30,15,39,997.12
2010,03,30,15,40,997.12
2010,03,30,15,41,997.09
2010,03,30,15,42,997.12
2010,03,30,15,43,997.12
2010,03,30,15,44,997.12
2010,03,30,15,45,997.12
2010,03,30,15,46,997.05
2010,03,30,15,47,997.09
2010,03,30,15,48,997.09
2010,03,30,15,49,997.09
2010,03,30,15,50,997.09
2010,03,30,15,51,997.12
2010,03,30,15,52,997.12
2010,03,30,15,53,997.09
2010,03,30,15,54,997.12
2010,03,30,15,55,997.12
2010,03,30,15,56,997.16
2010,03,30,15,57,997.19
2010,03,30,15,58,997.19
2010,03,30,15,59,997.19
2010,03,30,16,00,997.19
2010,03,30,16,01,997.19
2010,03,30,16,02,997.22
2010,03,30,16,03,997.22
2010,03,30,16,04,997.26
2010,03,30,16,05,997.26
2010,03,30,16,06,997.29
2010,03,30,16,07,997.29
2010,03,30,16,08,997.39
2010,03,30,16,09,997.26
2010,03,30,16,10,997.33
2010,03,30,16,11,997.33
2010,03,30,16,12,997.36
2010,03,30,16,13,997.36
2010,03,30,16,14,997.36
2010,03,30,16,15,997.33
2010,03,30,16,16,997.39
2010,03,30,16,17,997.39
2010,03,30,16,18,997.39
2010,03,30,16,19,997.43
2010,03,30,16,20,997.39
2010,03,30,16,21,997.43
2010,03,30,16,22,997.39
2010,03,30,16,23,997.43
2010,03,30,16,24,997.39
2010,03,30,16,25,997.39
2010,03,30,16,26,997.39
2010,03,30,16,27,997.39
2010,03,30,16,28,997.43
2010,03,30,16,29,997.43
2010,03,30,16,30,997.46
2010,03,30,16,31,997.50
2010,03,30,16,32,997.50
2010,03,30,16,33,997.50
2010,03,30,16,34,997.53
2010,03,30,16,35,997.53
2010,03,30,16,36,997.56